Stations météo

réclame
Mon MeteoGroup
Bournemouth Airport, Grande-Bretagne (3862): Température de l'air & dewpoint: 01.08.2020 05:00:00 - 07.08.2020 05:00:00 (BST)Bournemouth Airport, Grande-Bretagne (3862): Température de l'air -20cm & Température de l'air -100cm: 01.08.2020 05:00:00 - 07.08.2020 05:00:00 (BST)Bournemouth Airport, Grande-Bretagne (3862): Vitesse du vent: 01.08.2020 05:00:00 - 07.08.2020 05:00:00 (BST)Bournemouth Airport, Grande-Bretagne (3862): Direction du vent: 01.08.2020 05:00:00 - 07.08.2020 05:00:00 (BST)Bournemouth Airport, Grande-Bretagne (3862): reduced air pressure: 01.08.2020 05:00:00 - 07.08.2020 05:00:00 (BST)Bournemouth Airport, Grande-Bretagne (3862): visibility: 01.08.2020 05:00:00 - 07.08.2020 05:00:00 (BST)Bournemouth Airport, Grande-Bretagne (3862): Ensoleillement: 01.08.2020 05:00:00 - 07.08.2020 05:00:00 (BST)Bournemouth Airport, Grande-Bretagne (3862): Quantités de précipitations: 01.08.2020 05:00:00 - 07.08.2020 05:00:00 (BST)
Date & Time tt [°C] td [°C] tt -20cm [°C] tt -100cm [°C] ff [km/h] ff [knt] dd ppp [hPa] vv [km] sd [min] rr [mm]
07.08.2020 05:00:00 12,0 11,3 - - 4 2 N 1018,1 17 0 0,0
07.08.2020 04:00:00 12,2 11,1 - - 0 0 N 1017,9 15 0 0,0
07.08.2020 03:00:00 12,7 11,7 - - 4 2 NNW 1018,2 18 0 0,0
07.08.2020 02:00:00 13,3 12,4 - - 4 2 NW 1018,3 17 0 0,0
07.08.2020 01:00:00 13,0 11,8 - - 8 4 ENE 1018,3 17 - 0,0
07.08.2020 00:00:00 15,2 13,5 - - 4 2 N 1018,4 27 0 0,0
06.08.2020 23:00:00 16,2 14,1 - - 0 0 N 1018,4 26 0 0,0
06.08.2020 22:00:00 18,5 14,6 - - 4 2 S 1018,2 10 0 0,0
06.08.2020 21:00:00 20,5 14,8 - - 4 2 SSE 1017,8 10 30 0,0
06.08.2020 20:00:00 21,7 14,6 - - 8 4 S 1017,6 10 60 0,0
06.08.2020 19:00:00 22,7 14,9 - - 11 6 S 1017,4 10 60 0,0
06.08.2020 18:00:00 23,1 14,9 - - 13 7 S 1017,5 30 60 0,0
06.08.2020 17:00:00 23,4 15,0 - - 13 7 S 1017,6 10 60 0,0
06.08.2020 16:00:00 24,4 15,3 - - 16 9 S 1017,7 10 60 0,0
06.08.2020 15:00:00 24,3 15,7 - - 15 8 S 1017,8 10 60 0,0
06.08.2020 14:00:00 23,8 15,8 - - 18 10 SSE 1017,8 10 60 0,0
06.08.2020 13:00:00 23,7 17,2 - - 18 10 S 1017,8 35 36 0,0
06.08.2020 12:00:00 21,5 17,9 - - 15 8 SSE 1017,7 10 0 0,0
06.08.2020 11:00:00 19,7 18,4 - - 11 6 S 1017,6 10 0 0,0
06.08.2020 10:00:00 18,9 17,7 19,2 16,5 13 7 S 1017,4 7 0 0,2
06.08.2020 09:00:00 18,4 17,4 - - 15 8 S 1017,2 3,0 0 0,0
06.08.2020 08:00:00 18,0 17,6 - - 11 6 S 1016,6 4,0 0 0,0
06.08.2020 07:00:00 18,0 17,6 - - 11 6 S 1016,1 3,0 0 0,0
06.08.2020 06:00:00 18,1 17,7 - - 8 4 SSW 1015,6 5 0 0,0
06.08.2020 05:00:00 17,9 17,4 - - 8 4 SW 1015,3 4,9 0 0,2
06.08.2020 04:00:00 17,9 17,5 - - 9 5 S 1015,2 3,0 0 0,0
06.08.2020 03:00:00 17,9 17,4 - - 8 4 SW 1015,1 7 0 0,0
06.08.2020 02:00:00 17,9 17,3 - - 11 6 SW 1014,9 3,7 0 0,0
06.08.2020 01:00:00 18,0 17,4 - - 9 5 WSW 1014,9 16 - 0,0
06.08.2020 00:00:00 17,9 17,3 - - 16 9 SW 1014,6 14 0 0,0
05.08.2020 23:00:00 17,9 17,3 - - 15 8 SW 1014,5 4,4 0 0,0
05.08.2020 22:00:00 17,6 16,5 - - 18 10 SW 1014,3 5 0 0,0
05.08.2020 21:00:00 17,9 16,1 - - 21 11 SW 1014,0 10 0 0,0
05.08.2020 20:00:00 18,8 15,7 - - 24 13 WSW 1013,6 10 0 0,0
05.08.2020 19:00:00 19,1 15,4 - - 24 13 WSW 1013,7 10 12 0,0
05.08.2020 18:00:00 20,3 14,8 - - 18 10 SW 1013,2 30 0 0,0
05.08.2020 17:00:00 20,9 15,1 - - 24 13 SSW 1012,9 10 42 0,0
05.08.2020 16:00:00 20,6 14,9 - - 24 13 S 1013,2 10 18 0,0
05.08.2020 15:00:00 20,8 15,2 - - 28 15 SSW 1013,2 10 18 0,0
05.08.2020 14:00:00 21,3 15,4 - - 29 16 SSW 1013,3 35 54 0,0
05.08.2020 13:00:00 19,9 15,0 - - 24 13 S 1013,3 10 42 0,0
05.08.2020 12:00:00 20,3 14,5 - - 22 12 SSW 1013,3 30 18 0,0
05.08.2020 11:00:00 20,1 14,9 - - 21 11 SSW 1013,2 10 18 0,0
05.08.2020 10:00:00 19,2 13,6 18,7 16,5 21 11 SW 1013,1 10 36 0,0
05.08.2020 09:00:00 18,2 15,0 - - 18 10 SSW 1013,3 28 0 0,0
05.08.2020 08:00:00 17,8 14,9 - - 18 10 SW 1013,1 10 0 0,0
05.08.2020 07:00:00 17,1 14,6 - - 16 9 SW 1013,0 10 0 0,0
05.08.2020 06:00:00 16,8 14,6 - - 15 8 SW 1013,1 10 0 0,0
05.08.2020 05:00:00 16,7 14,4 - - 18 10 SW 1013,0 24 0 0,0
05.08.2020 04:00:00 17,0 14,7 - - 18 10 SW 1013,1 24 0 0,0
05.08.2020 03:00:00 17,1 14,8 - - 13 7 SW 1013,7 24 0 0,0
05.08.2020 02:00:00 17,0 14,5 - - 13 7 SW 1014,0 26 0 0,0
05.08.2020 01:00:00 16,6 14,5 - - 13 7 SSW 1014,2 23 - 0,0
05.08.2020 00:00:00 16,4 14,0 - - 16 9 SW 1014,7 24 0 0,0
04.08.2020 23:00:00 16,7 14,1 - - 16 9 SW 1014,8 24 0 0,0
04.08.2020 22:00:00 16,6 13,8 - - 13 7 SW 1014,9 26 0 0,0
04.08.2020 21:00:00 16,5 13,1 - - 16 9 SW 1014,9 10 0 0,0
04.08.2020 20:00:00 17,1 12,6 - - 22 12 WSW 1015,2 10 30 0,0
04.08.2020 19:00:00 17,7 11,7 - - 24 13 SW 1015,4 30 42 0,0
04.08.2020 18:00:00 19,0 11,7 - - 26 14 WSW 1015,7 10 30 0,0
04.08.2020 17:00:00 20,5 12,5 - - 28 15 WSW 1015,8 10 36 0,0
04.08.2020 16:00:00 19,2 11,4 - - 24 13 SW 1016,3 10 24 0,0
04.08.2020 15:00:00 19,1 11,5 - - 24 13 WSW 1017,0 10 18 0,0
04.08.2020 14:00:00 19,6 11,0 - - 24 13 WSW 1017,3 10 12 0,0
04.08.2020 13:00:00 19,6 8,4 - - 22 12 SW 1017,5 10 30 0,0
04.08.2020 12:00:00 18,7 10,1 - - 18 10 SW 1017,8 30 6 0,0
04.08.2020 11:00:00 19,1 7,5 - - 13 7 SW 1017,7 10 48 0,0
04.08.2020 10:00:00 19,0 8,1 19,0 16,5 15 8 SW 1018,0 10 60 0,0
04.08.2020 09:00:00 15,9 9,0 - - 5 3 WSW 1018,1 30 60 0,0
04.08.2020 08:00:00 12,8 9,8 - - 4 2 WNW 1018,0 30 60 0,0
04.08.2020 07:00:00 9,6 8,3 - - 4 2 WNW 1017,8 10 36 0,0
04.08.2020 06:00:00 7,1 6,0 - - 5 3 WNW 1017,7 10 0 0,0
04.08.2020 05:00:00 7,7 6,7 - - 4 2 W 1017,9 28 0 0,0
04.08.2020 04:00:00 8,2 7,2 - - 2 1 NW 1018,0 30 0 0,0
04.08.2020 03:00:00 8,7 7,6 - - 5 3 W 1018,1 29 0 0,0
04.08.2020 02:00:00 10,3 8,7 - - 4 2 W 1018,3 30 0 0,0
04.08.2020 01:00:00 11,1 8,9 - - 5 3 W 1018,6 30 - 0,0
04.08.2020 00:00:00 12,4 9,1 - - 9 5 WNW 1018,5 35 0 0,0
03.08.2020 23:00:00 13,7 9,5 - - 11 6 WNW 1018,2 35 0 0,0
03.08.2020 22:00:00 15,3 9,5 - - 15 8 NW 1018,0 10 0 0,0
03.08.2020 21:00:00 17,0 9,4 - - 18 10 NW 1017,6 10 18 0,0
03.08.2020 20:00:00 19,6 8,1 - - 21 11 WNW 1016,9 30 60 0,0
03.08.2020 19:00:00 20,7 7,3 - - 18 10 NW 1016,4 10 42 0,0
03.08.2020 18:00:00 19,5 7,8 - - 21 11 NNW 1016,5 10 24 0,0
03.08.2020 17:00:00 20,9 6,7 - - 22 12 NW 1016,3 10 48 0,0
03.08.2020 16:00:00 22,0 6,5 - - 22 12 NW 1016,2 10 36 0,0
03.08.2020 15:00:00 20,9 6,2 - - 22 12 WNW 1016,5 10 30 0,0
03.08.2020 14:00:00 20,4 6,7 - - 22 12 NW 1016,7 35 36 0,0
03.08.2020 13:00:00 21,4 8,8 - - 21 11 NW 1017,0 10 36 0,0
03.08.2020 12:00:00 20,3 8,1 - - 18 10 NW 1017,1 10 48 0,0
03.08.2020 11:00:00 18,9 9,5 - - 15 8 NW 1017,0 30 48 0,0
03.08.2020 10:00:00 17,8 10,1 18,9 16,5 13 7 NNW 1017,1 10 60 0,0
03.08.2020 09:00:00 16,3 11,2 - - 11 6 NNW 1017,0 30 60 0,0
03.08.2020 08:00:00 14,0 11,4 - - 11 6 NNW 1016,8 10 60 0,0
03.08.2020 07:00:00 11,6 11,0 - - 8 4 NW 1016,8 10 24 0,0
03.08.2020 06:00:00 9,8 8,7 - - 9 5 NW 1016,5 10 0 0,0
03.08.2020 05:00:00 10,6 9,3 - - 4 2 WNW 1016,2 30 0 0,0
03.08.2020 04:00:00 11,6 10,2 - - 9 5 WNW 1016,2 30 0 0,0
03.08.2020 03:00:00 12,4 10,4 - - 11 6 WNW 1016,6 35 0 0,0
03.08.2020 02:00:00 11,8 9,3 - - 9 5 WNW 1016,7 35 0 0,0
03.08.2020 01:00:00 13,3 10,0 - - 15 8 WNW 1016,7 35 - 0,0
03.08.2020 00:00:00 14,6 10,5 - - 18 10 NW 1016,8 35 0 0,0
02.08.2020 23:00:00 15,6 11,3 - - 13 7 NW 1016,8 35 0 0,0
02.08.2020 22:00:00 15,6 11,7 - - 11 6 WNW 1016,8 35 0 0,0
02.08.2020 21:00:00 15,3 11,4 - - 9 5 N 1016,5 35 0 0,0
02.08.2020 20:00:00 17,7 12,8 - - 21 11 W 1016,6 30 0 0,0
02.08.2020 19:00:00 18,6 13,6 - - 15 8 WSW 1016,4 15 24 0,0
02.08.2020 18:00:00 19,7 12,9 - - 21 11 W 1016,5 10 30 0,0
02.08.2020 17:00:00 19,8 12,3 - - 26 14 WSW 1016,7 10 42 0,0
02.08.2020 16:00:00 21,2 12,6 - - 22 12 WSW 1017,1 10 6 0,0
02.08.2020 15:00:00 20,8 11,4 - - 26 14 WSW 1017,2 10 42 0,0
02.08.2020 14:00:00 22,3 12,1 - - 26 14 SSW 1017,2 10 54 0,0
02.08.2020 13:00:00 20,5 11,3 - - 16 9 WSW 1017,4 10 24 0,0
02.08.2020 12:00:00 19,4 11,0 - - 13 7 W 1018,0 10 18 0,0
02.08.2020 11:00:00 19,1 11,1 - - 11 6 WNW 1018,2 10 30 0,0
02.08.2020 10:00:00 18,5 12,1 19,0 16,5 11 6 W 1018,4 30 18 0,0
02.08.2020 09:00:00 17,6 12,2 - - 15 8 W 1018,5 10 48 0,0
02.08.2020 08:00:00 16,4 12,8 - - 13 7 W 1018,4 10 54 0,0
02.08.2020 07:00:00 13,4 12,2 - - 4 2 SW 1018,3 10 6 0,0
02.08.2020 06:00:00 11,4 10,3 - - 8 4 WSW 1018,1 10 0 0,0
02.08.2020 05:00:00 11,1 10,0 - - 5 3 WNW 1018,1 24 0 0,0
02.08.2020 04:00:00 10,1 8,5 - - 11 6 W 1018,1 23 0 0,0
02.08.2020 03:00:00 11,8 9,9 - - 9 5 W 1018,1 23 0 0,0
02.08.2020 02:00:00 12,3 10,1 - - 11 6 W 1018,2 20 0 0,0
02.08.2020 01:00:00 12,7 9,7 - - 5 3 W 1018,3 24 - 0,0
02.08.2020 00:00:00 13,0 9,5 - - 9 5 WNW 1018,3 25 0 0,0
01.08.2020 23:00:00 13,7 9,5 - - 5 3 WNW 1018,4 10 0 0,0
01.08.2020 22:00:00 15,2 9,6 - - 9 5 WNW 1018,1 10 0 0,0
01.08.2020 21:00:00 17,2 9,4 - - 15 8 NW 1017,4 10 36 0,0
01.08.2020 20:00:00 19,2 9,8 - - 21 11 NW 1016,9 10 60 0,0
01.08.2020 19:00:00 21,0 11,1 - - 18 10 WNW 1016,6 10 12 0,0
01.08.2020 18:00:00 20,2 13,1 - - 22 12 NW 1016,7 10 0 0,0
01.08.2020 17:00:00 21,1 14,5 - - 21 11 WSW 1016,4 10 6 0,0
01.08.2020 16:00:00 23,0 12,8 - - 16 9 WNW 1016,3 10 6 0,0
01.08.2020 15:00:00 22,5 12,9 - - 22 12 W 1016,5 23 18 0,0
01.08.2020 14:00:00 24,0 13,3 - - 22 12 W 1016,2 24 36 0,0
01.08.2020 13:00:00 22,7 14,0 - - 22 12 W 1016,3 25 42 0,0
01.08.2020 12:00:00 23,0 15,4 - - 16 9 SW 1016,4 10 42 0,0
01.08.2020 11:00:00 21,3 14,9 - - 18 10 WSW 1016,4 10 30 0,0
01.08.2020 10:00:00 19,9 15,1 19,2 16,2 15 8 WSW 1016,2 10 12 0,0
01.08.2020 09:00:00 18,5 16,0 - - 13 7 W 1016,0 15 12 0,0
01.08.2020 08:00:00 17,8 16,4 - - 13 7 SW 1015,8 10 30 0,0
01.08.2020 07:00:00 15,6 15,1 - - 8 4 WSW 1015,9 10 12 0,0
01.08.2020 06:00:00 13,8 13,0 - - 9 5 SW 1016,0 10 0 0,0
01.08.2020 05:00:00 13,5 12,7 - - 5 3 WSW 1015,7 19 0 0,0

tt = Température de l'air
td = dewpoint
tt -20cm = Température de l'air -20cm
tt -100cm = Température de l'air -100cm
ff = Vitesse du vent
dd = Direction du vent
ppp = reduced air pressure
vv = visibility
sd = Ensoleillement
rr = Quantités de précipitations

stations d'obs. à proximité